Find Local Weather

World > North America > United States > Indiana

Greensburg, Indiana Regional Weather

Lat: 39.34N, Lon: 85.48W
Wx Zone: INZ065
Feedback
Expires:201807180400;;646628
ASUS43 KIND 180309
RWRIN 

WEATHER ROUNDUP FOR INDIANA
NATIONAL WEATHER SERVICE INDIANAPOLIS IN
1100 PM EDT TUE JUL 17 2018

NOTE: "FAIR" INDICATES FEW OR NO CLOUDS BELOW 12,000 FEET WITH NO
SIGNIFICANT WEATHER AND/OR OBSTRUCTIONS TO VISIBILITY.

* - STATION DOES NOT REPORT WEATHER SUCH AS PRECIPITATION OR FOG.

+ - STATION NOT QUALITY CONTROLLED BY THE NATIONAL WEATHER SERVICE.
    USE DATA WITH CAUTION...ESPECIALLY DEWPOINT AND RELATIVE
    HUMIDITY OBSERVATIONS.


INZ030>032-037>040-046>048-054>057-064-065-180400-
CENTRAL INDIANA
  
CITY           SKY/WX    TMP DP  RH WIND       PRES   REMARKS
ANDERSON       FAIR      68  55  63 CALM      30.08R                  
FISHERS *+     FAIR      72  59  64 N8        30.07R                  
FRANKFORT +    MOCLDY    70  56  61 NE6       30.10R                  
GREENWOOD *+   FAIR      75  58  55 N9        30.06R                  
INDIANAPOLIS   MOCLDY    76  57  51 N13       30.06R                  
-EAGLE CREEK   FAIR      75  57  53 N7        30.06R                  
KOKOMO +       FAIR      66  54  65 N6        30.08R                  
MARION +       FAIR      62  56  82 CALM      30.08R                  
MT COMFORT *+  FAIR      68  64  88 N5        30.07R                  
SHELBYVILLE    FAIR      71  62  73 N5        30.05R                  
ZIONSVILLE +   FAIR      65  58  76 N7        30.08R                  

$$


SKY/WX - Weather  TMP - Temperature  DP - Dewpoint  RH - Relative Humidity
WIND - Wind Direction/Speed PRES - Barometric Pressure